| time (UTC) | temp F | wind direction | speed knots | gust knots | rain 1hr in | rain 24hr in | rain mn in | humidity % | barometer mb |
| 20260506195518 | 42 | 25 | 0.9 | 2.6 | 0.00 | 0.00 | 0.00 | 57 | 1012.9 |
| 20260506194538 | 42 | 37 | 0.9 | 2.6 | 0.00 | 0.00 | 0.00 | 57 | 1013.0 |
| 20260506193515 | 42 | 73 | 0.9 | 1.7 | 0.00 | 0.00 | 0.00 | 57 | 1013.1 |
| 20260506192536 | 43 | 33 | 0.0 | 1.7 | 0.00 | 0.00 | 0.00 | 58 | 1013.2 |
| 20260506191536 | 43 | 353 | 0.9 | 2.6 | 0.00 | 0.00 | 0.00 | 57 | 1013.2 |
| 20260506190516 | 43 | 54 | 0.0 | 1.7 | 0.00 | 0.00 | 0.00 | 59 | 1013.3 |
| 20260506185516 | 43 | 93 | 0.0 | 0.9 | 0.00 | 0.00 | 0.00 | 58 | 1013.3 |
| 20260506184516 | 44 | 344 | 0.0 | 0.9 | 0.00 | 0.00 | 0.00 | 57 | 1013.2 |
| 20260506183516 | 44 | 336 | 0.0 | 0.9 | 0.00 | 0.00 | 0.00 | 56 | 1013.1 |
| 20260506182517 | 44 | 313 | 0.0 | 1.7 | 0.00 | 0.00 | 0.00 | 57 | 1013.0 |
| 20260506181517 | 45 | 41 | 0.9 | 2.6 | 0.00 | 0.00 | 0.00 | 54 | 1013.0 |
| 20260506180517 | 45 | 12 | 0.9 | 2.6 | 0.00 | 0.00 | 0.00 | 53 | 1012.9 |
| 20260506175518 | 45 | 11 | 0.9 | 2.6 | 0.00 | 0.00 | 0.00 | 53 | 1012.9 |
| 20260506174517 | 46 | 13 | 0.9 | 1.7 | 0.00 | 0.00 | 0.00 | 52 | 1012.8 |
| 20260506173517 | 46 | 40 | 0.9 | 3.5 | 0.00 | 0.00 | 0.00 | 50 | 1012.8 |
| 20260506172518 | 47 | 346 | 0.9 | 2.6 | 0.00 | 0.00 | 0.00 | 50 | 1012.8 |
| 20260506171518 | 47 | 12 | 0.9 | 2.6 | 0.00 | 0.00 | 0.00 | 49 | 1012.8 |
| 20260506170518 | 48 | 20 | 1.7 | 3.5 | 0.00 | 0.00 | 0.00 | 47 | 1012.8 |
| 20260506165518 | 48 | 23 | 0.9 | 3.5 | 0.00 | 0.00 | 0.00 | 46 | 1012.7 |
| 20260506164538 | 48 | 15 | 1.7 | 6.1 | 0.00 | 0.00 | 0.00 | 44 | 1012.6 |
| 20260506163516 | 49 | 36 | 1.7 | 4.3 | 0.00 | 0.00 | 0.00 | 37 | 1012.5 |
| 20260506162516 | 49 | 35 | 2.6 | 7.8 | 0.00 | 0.00 | 0.00 | 36 | 1012.5 |
| 20260506161516 | 49 | 21 | 2.6 | 4.3 | 0.00 | 0.00 | 0.00 | 37 | 1012.5 |
| 20260506160516 | 49 | 19 | 1.7 | 4.3 | 0.00 | 0.00 | 0.00 | 38 | 1012.5 |
| 20260506155516 | 50 | 0.0 | 0.0 | 0.00 | 0.00 | 0.00 | 38 | 1012.6 | |
| 20260506154536 | 50 | 34 | 2.6 | 6.1 | 0.00 | 0.00 | 0.00 | 38 | 1012.7 |
| 20260506153517 | 50 | 42 | 2.6 | 4.3 | 0.00 | 0.00 | 0.00 | 37 | 1012.7 |
| 20260506152517 | 50 | 30 | 1.7 | 4.3 | 0.00 | 0.00 | 0.00 | 37 | 1012.6 |
| 20260506151517 | 50 | 5 | 2.6 | 7.0 | 0.00 | 0.00 | 0.00 | 36 | 1012.8 |
| 20260506150537 | 50 | 28 | 2.6 | 6.1 | 0.00 | 0.00 | 0.00 | 36 | 1012.8 |
| 20260506145517 | 51 | 6 | 2.6 | 4.3 | 0.00 | 0.00 | 0.00 | 34 | 1013.0 |
| 20260506144517 | 51 | 352 | 2.6 | 4.3 | 0.00 | 0.00 | 0.00 | 34 | 1013.1 |
| 20260506143517 | 51 | 28 | 2.6 | 6.1 | 0.00 | 0.00 | 0.00 | 34 | 1012.9 |
| 20260506142518 | 51 | 15 | 2.6 | 7.0 | 0.00 | 0.00 | 0.00 | 35 | 1012.8 |
| 20260506141518 | 51 | 353 | 1.7 | 4.3 | 0.00 | 0.00 | 0.00 | 34 | 1013.0 |
| 20260506140518 | 52 | 18 | 3.5 | 6.1 | 0.00 | 0.00 | 0.00 | 35 | 1013.0 |
| 20260506135518 | 52 | 26 | 3.5 | 6.1 | 0.00 | 0.00 | 0.00 | 35 | 1012.9 |
| 20260506134518 | 52 | 347 | 1.7 | 5.2 | 0.00 | 0.00 | 0.00 | 33 | 1012.8 |
| 20260506133538 | 52 | 333 | 2.6 | 5.2 | 0.00 | 0.00 | 0.00 | 34 | 1012.8 |
| 20260506132515 | 52 | 33 | 1.7 | 8.7 | 0.00 | 0.00 | 0.00 | 34 | 1012.8 |
| 20260506131518 | 52 | 352 | 2.6 | 5.2 | 0.00 | 0.00 | 0.00 | 34 | 1012.9 |
| 20260506130516 | 52 | 344 | 2.6 | 5.2 | 0.00 | 0.00 | 0.00 | 34 | 1013.0 |
| 20260506125516 | 52 | 7 | 1.7 | 6.1 | 0.00 | 0.00 | 0.00 | 33 | 1013.1 |
| 20260506124536 | 52 | 20 | 1.7 | 6.1 | 0.00 | 0.00 | 0.00 | 34 | 1013.0 |
| 20260506123516 | 53 | 1 | 1.7 | 6.1 | 0.00 | 0.00 | 0.00 | 32 | 1012.9 |
| 20260506122516 | 53 | 34 | 1.7 | 7.0 | 0.00 | 0.00 | 0.00 | 31 | 1012.8 |
| 20260506121516 | 53 | 55 | 3.5 | 7.8 | 0.00 | 0.00 | 0.00 | 30 | 1012.7 |
| 20260506120517 | 53 | 84 | 1.7 | 6.1 | 0.00 | 0.00 | 0.00 | 32 | 1012.4 |
| 20260506115517 | 55 | 44 | 2.6 | 7.0 | 0.00 | 0.00 | 0.00 | 31 | 1011.9 |
| 20260506114537 | 54 | 43 | 2.6 | 6.1 | 0.00 | 0.00 | 0.00 | 33 | 1012.2 |
| 20260506113517 | 54 | 328 | 1.7 | 5.2 | 0.00 | 0.00 | 0.00 | 32 | 1012.3 |
| 20260506112537 | 53 | 349 | 1.7 | 4.3 | 0.00 | 0.00 | 0.00 | 32 | 1012.2 |
| 20260506111537 | 54 | 52 | 3.5 | 6.1 | 0.00 | 0.00 | 0.00 | 32 | 1012.5 |
| 20260506110538 | 54 | 17 | 1.7 | 5.2 | 0.00 | 0.00 | 0.00 | 33 | 1013.0 |
| 20260506105518 | 55 | 8 | 2.6 | 6.1 | 0.00 | 0.00 | 0.00 | 33 | 1012.2 |
| 20260506104518 | 54 | 292 | 1.7 | 5.2 | 0.00 | 0.00 | 0.00 | 32 | 1012.1 |
| 20260506103518 | 53 | 118 | 2.6 | 7.0 | 0.00 | 0.00 | 0.00 | 33 | 1012.0 |
| 20260506102518 | 52 | 12 | 1.7 | 7.0 | 0.00 | 0.00 | 0.00 | 32 | 1012.2 |
| 20260506101535 | 52 | 30 | 2.6 | 6.1 | 0.00 | 0.00 | 0.00 | 35 | 1013.9 |
| 20260506100516 | 54 | 36 | 3.5 | 6.1 | 0.00 | 0.00 | 0.00 | 33 | 1013.1 |
| 20260506095515 | 54 | 89 | 1.7 | 4.3 | 0.00 | 0.00 | 0.00 | 31 | 1012.2 |
| 20260506094516 | 54 | 244 | 1.7 | 3.5 | 0.00 | 0.00 | 0.00 | 34 | 1012.2 |
| 20260506093516 | 53 | 236 | 2.6 | 6.1 | 0.00 | 0.00 | 0.00 | 35 | 1012.1 |
| 20260506092516 | 53 | 245 | 1.7 | 5.2 | 0.00 | 0.00 | 0.00 | 33 | 1012.2 |
| 20260506091516 | 53 | 267 | 1.7 | 5.2 | 0.00 | 0.00 | 0.00 | 35 | 1012.1 |
| 20260506090516 | 53 | 345 | 2.6 | 6.1 | 0.00 | 0.00 | 0.00 | 35 | 1012.7 |
| 20260506085537 | 53 | 305 | 2.6 | 6.1 | 0.00 | 0.00 | 0.00 | 37 | 1011.7 |
| 20260506084517 | 52 | 14 | 3.5 | 7.8 | 0.00 | 0.00 | 0.00 | 37 | 1011.6 |
| 20260506083537 | 52 | 331 | 2.6 | 7.0 | 0.00 | 0.00 | 0.00 | 38 | 1011.9 |
| 20260506082518 | 52 | 22 | 3.5 | 7.8 | 0.00 | 0.00 | 0.00 | 40 | 1011.6 |
| 20260506081517 | 51 | 151 | 1.7 | 3.5 | 0.00 | 0.00 | 0.00 | 42 | 1012.2 |
| 20260506080518 | 51 | 264 | 2.6 | 6.1 | 0.00 | 0.00 | 0.00 | 41 | 1011.3 |
| 20260506072538 | 50 | 351 | 1.7 | 6.1 | 0.00 | 0.00 | 0.00 | 49 | 1011.0 |
| 20260506071518 | 50 | 47 | 1.7 | 4.3 | 0.00 | 0.00 | 0.00 | 50 | 1010.9 |
| 20260506070515 | 48 | 343 | 1.7 | 5.2 | 0.00 | 0.00 | 0.00 | 52 | 1011.3 |
| 20260506061557 | 46 | 218 | 0.9 | 3.5 | 0.00 | 0.00 | 0.00 | 72 | 1012.0 |
| 20260506060517 | 45 | 183 | 2.6 | 6.1 | 0.00 | 0.00 | 0.00 | 76 | 1011.7 |
| 20260506050518 | 40 | 202 | 0.9 | 4.3 | 0.00 | 0.00 | 0.00 | 89 | 1011.5 |
| 20260506044517 | 37 | 290 | 0.9 | 1.7 | 0.00 | 0.00 | 0.00 | 91 | 1011.5 |
| 20260506043538 | 36 | 211 | 0.9 | 1.7 | 0.00 | 0.00 | 0.00 | 92 | 1011.5 |
| 20260506042517 | 34 | 225 | 0.9 | 3.5 | 0.00 | 0.00 | 0.00 | 94 | 1011.4 |
| 20260506041518 | 32 | 174 | 0.9 | 5.2 | 0.00 | 0.00 | 0.00 | 95 | 1011.4 |
| 20260506040538 | 31 | 316 | 0.0 | 0.9 | 0.00 | 0.00 | 0.00 | 96 | 1011.5 |
| 20260506035518 | 30 | 274 | 0.0 | 0.9 | 0.00 | 0.00 | 0.00 | 96 | 1011.6 |
| 20260506034518 | 29 | 216 | 0.0 | 0.9 | 0.00 | 0.00 | 0.00 | 96 | 1011.6 |
| 20260506033535 | 29 | 170 | 0.0 | 0.0 | 0.00 | 0.00 | 0.00 | 96 | 1011.5 |
| 20260506032556 | 28 | 196 | 0.9 | 1.7 | 0.00 | 0.00 | 0.00 | 96 | 1011.4 |
| 20260506031516 | 28 | 109 | 0.0 | 0.9 | 0.00 | 0.00 | 0.00 | 96 | 1011.3 |
| 20260506030516 | 27 | 145 | 0.0 | 1.7 | 0.00 | 0.00 | 0.00 | 95 | 1011.3 |
| 20260506025516 | 27 | 45 | 0.0 | 0.9 | 0.00 | 0.00 | 0.00 | 95 | 1011.3 |
| 20260506024536 | 28 | 48 | 0.0 | 0.9 | 0.00 | 0.00 | 0.00 | 95 | 1011.1 |
| 20260506023537 | 28 | 120 | 0.9 | 1.7 | 0.00 | 0.00 | 0.00 | 95 | 1011.1 |
| 20260506022516 | 28 | 208 | 0.9 | 1.7 | 0.00 | 0.00 | 0.00 | 95 | 1011.1 |
| 20260506021517 | 28 | 189 | 0.0 | 1.7 | 0.00 | 0.00 | 0.00 | 95 | 1010.9 |
| 20260506020537 | 28 | 197 | 0.0 | 0.9 | 0.00 | 0.00 | 0.00 | 95 | 1010.9 |
| 20260506015517 | 28 | 199 | 0.9 | 1.7 | 0.00 | 0.00 | 0.00 | 95 | 1010.7 |
| 20260506014517 | 28 | 215 | 0.0 | 1.7 | 0.00 | 0.00 | 0.00 | 95 | 1010.7 |
| 20260506013517 | 28 | 195 | 0.0 | 0.9 | 0.00 | 0.00 | 0.00 | 95 | 1010.7 |
| 20260506012518 | 28 | 34 | 0.0 | 1.7 | 0.00 | 0.00 | 0.00 | 95 | 1010.7 |
| 20260506011518 | 29 | 194 | 0.0 | 0.9 | 0.00 | 0.00 | 0.00 | 94 | 1010.6 |
| 20260506010518 | 29 | 221 | 0.0 | 0.9 | 0.00 | 0.00 | 0.00 | 94 | 1010.4 |
| 20260506005538 | 30 | 289 | 0.0 | 1.7 | 0.00 | 0.00 | 0.00 | 94 | 1010.3 |
| 20260506004515 | 30 | 251 | 0.9 | 1.7 | 0.00 | 0.00 | 0.00 | 94 | 1010.2 |
| 20260506003515 | 29 | 321 | 0.9 | 1.7 | 0.00 | 0.00 | 0.00 | 94 | 1010.1 |
| 20260506002515 | 29 | 299 | 0.0 | 1.7 | 0.00 | 0.00 | 0.00 | 94 | 1010.1 |
| 20260506001515 | 29 | 226 | 0.9 | 1.7 | 0.00 | 0.00 | 0.00 | 94 | 1010.0 |
| 20260506000516 | 30 | 226 | 0.9 | 1.7 | 0.00 | 0.00 | 0.00 | 94 | 1010.0 |
| 20260505235516 | 30 | 284 | 0.0 | 1.7 | 0.00 | 0.00 | 0.00 | 94 | 1009.9 |
| 20260505234536 | 30 | 262 | 0.0 | 0.9 | 0.00 | 0.00 | 0.00 | 93 | 1010.0 |
| 20260505233516 | 30 | 248 | 0.0 | 0.9 | 0.00 | 0.00 | 0.00 | 93 | 1009.9 |
| 20260505232516 | 31 | 241 | 0.0 | 0.9 | 0.00 | 0.00 | 0.00 | 93 | 1009.8 |
| 20260505231517 | 30 | 215 | 0.9 | 1.7 | 0.00 | 0.00 | 0.00 | 93 | 1009.7 |
| 20260505230516 | 30 | 225 | 0.9 | 1.7 | 0.00 | 0.00 | 0.00 | 92 | 1009.8 |
| 20260505225540 | 30 | 246 | 0.0 | 1.7 | 0.00 | 0.00 | 0.00 | 92 | 1009.8 |
| 20260505224517 | 30 | 206 | 0.0 | 0.9 | 0.00 | 0.00 | 0.00 | 91 | 1009.7 |
| 20260505223518 | 31 | 212 | 0.0 | 1.7 | 0.00 | 0.00 | 0.00 | 91 | 1009.7 |
| 20260505222518 | 31 | 208 | 0.0 | 0.9 | 0.00 | 0.00 | 0.00 | 91 | 1009.7 |
| 20260505221517 | 31 | 254 | 0.0 | 0.9 | 0.00 | 0.00 | 0.00 | 90 | 1009.7 |
| 20260505220518 | 31 | 206 | 0.0 | 0.9 | 0.00 | 0.00 | 0.00 | 89 | 1009.6 |
| 20260505215538 | 31 | 199 | 0.0 | 0.9 | 0.00 | 0.00 | 0.00 | 89 | 1009.3 |
| 20260505214518 | 32 | 221 | 0.0 | 1.7 | 0.00 | 0.00 | 0.00 | 88 | 1009.5 |
| 20260505213516 | 32 | 216 | 0.9 | 2.6 | 0.00 | 0.00 | 0.00 | 88 | 1009.4 |
| 20260505212538 | 32 | 197 | 0.0 | 0.9 | 0.00 | 0.00 | 0.00 | 87 | 1009.5 |
| 20260505211518 | 32 | 229 | 0.0 | 0.9 | 0.00 | 0.00 | 0.00 | 86 | 1009.4 |
| 20260505210518 | 33 | 232 | 0.0 | 1.7 | 0.00 | 0.00 | 0.00 | 85 | 1009.3 |
| 20260505205516 | 33 | 211 | 0.9 | 1.7 | 0.00 | 0.00 | 0.00 | 85 | 1009.1 |
| 20260505204516 | 33 | 204 | 0.9 | 2.6 | 0.00 | 0.00 | 0.00 | 85 | 1009.1 |
| 20260505203516 | 33 | 212 | 0.9 | 1.7 | 0.00 | 0.00 | 0.00 | 83 | 1009.1 |
| 20260505202516 | 33 | 214 | 0.9 | 1.7 | 0.00 | 0.00 | 0.00 | 82 | 1009.0 |
| 20260505201516 | 34 | 221 | 0.9 | 1.7 | 0.00 | 0.00 | 0.00 | 82 | 1008.9 |
| 20260505200516 | 34 | 215 | 0.9 | 0.9 | 0.00 | 0.00 | 0.00 | 81 | 1008.9 |